Terug naar catalogus

WESTFORD NEEDLES

LostPO
NORAD 19059·DEBRIS·🇺🇸 United States

Gelanceerd May 9, 1963 vanaf Vandenberg Space Force Base

Loading…

Volgende Passages (komende 24 uur)

TLE

VerouderdSource: Space-Track

Epoch: Apr 25, 2026, 04:01 UTC

1 19059U 63014EG  26115.16777297  .00000231  00000-0  10569+0 0  9995
2 19059  87.3566 192.4323 0026562 106.1595 254.2186  8.66533897209186

Volg WESTFORD NEEDLES in realtime met AllMySat

Download on the App Store